Air Quality Table

TIMESTAMP NO2 SO2 O3 PM10 PM2.5 CO TEMP HUM AIRPRES WS WD NO BENZENE
2021-08-02 09:00 42.67 ug/m3 0.49 ug/m3 46.99 ug/m3 69.84 ug/m3 21.11 ug/m3 0.4 mg/m3 30.46 C 51.99 % 1,011.62 mbar 0.91 m/s 218.17 Deg 23.07 ug/m3 3.4 ug/m3
2021-08-02 01:00 44.04 ug/m3 0.45 ug/m3 48.06 ug/m3 83.04 ug/m3 26.94 ug/m3 0.66 mg/m3 31.1 C 55.77 % 1,011.58 mbar 1.34 m/s 188.03 Deg 22.25 ug/m3 4.14 ug/m3
2021-08-01 17:00 20.8 ug/m3 0.2 ug/m3 89.23 ug/m3 57.11 ug/m3 20.71 ug/m3 0.33 mg/m3 35.77 C 30.19 % 1,011.29 mbar 2.15 m/s 141 Deg 8.18 ug/m3 1.8 ug/m3
2021-08-01 09:00 35.83 ug/m3 0.29 ug/m3 42.79 ug/m3 72 ug/m3 25.56 ug/m3 0.36 mg/m3 30.49 C 48.66 % 1,010.55 mbar 1.19 m/s 228.03 Deg 8.54 ug/m3 2.6 ug/m3
2021-08-01 01:00 36.24 ug/m3 0.34 ug/m3 51.13 ug/m3 67.95 ug/m3 23.79 ug/m3 0.52 mg/m3 30.22 C 62.11 % 1,010.78 mbar 1.26 m/s 97.93 Deg 16.35 ug/m3 3.46 ug/m3
2021-07-31 17:00 24.46 ug/m3 0.26 ug/m3 80.26 ug/m3 68.2 ug/m3 25.96 ug/m3 0.43 mg/m3 31.39 C 58.75 % 1,010.52 mbar 3.09 m/s 78.43 Deg 12.99 ug/m3 1.82 ug/m3
2021-07-31 09:00 26.75 ug/m3 0.24 ug/m3 64.78 ug/m3 52.31 ug/m3 21.32 ug/m3 0.26 mg/m3 30.08 C 51.7 % 1,010.49 mbar 1.69 m/s 220.73 Deg 4.75 ug/m3 1.82 ug/m3
2021-07-31 01:00 20.81 ug/m3 0.22 ug/m3 60.24 ug/m3 1.97 ug/m3 21.06 ug/m3 0.23 mg/m3 31.42 C 37 % 1,011.62 mbar 1.53 m/s 212.08 Deg 1.75 ug/m3 1.15 ug/m3
2021-07-30 17:00 25.49 ug/m3 0.31 ug/m3 66.6 ug/m3 1.91 ug/m3 18.63 ug/m3 0.2 mg/m3 35.92 C 20.16 % 1,013.01 mbar 2.78 m/s 236.57 Deg 6.63 ug/m3 1.11 ug/m3
2021-07-30 09:00 43.75 ug/m3 0.47 ug/m3 51.26 ug/m3 29.94 ug/m3 15.99 ug/m3 0.31 mg/m3 30 C 35.81 % 1,013.24 mbar 0.87 m/s 236.57 Deg 8.61 ug/m3 1.93 ug/m3
2021-07-30 01:00 34.87 ug/m3 0.24 ug/m3 69.68 ug/m3 46.34 ug/m3 14.36 ug/m3 0.3 mg/m3 31.8 C 28.11 % 1,013.63 mbar 1.11 m/s 244.42 Deg 1.82 ug/m3 1.44 ug/m3
2021-07-29 17:00 29.19 ug/m3 0.3 ug/m3 85.76 ug/m3 47.11 ug/m3 15.3 ug/m3 0.25 mg/m3 34.23 C 27.73 % 1,014.17 mbar 2.38 m/s 299.28 Deg 7.29 ug/m3 1.03 ug/m3
2021-07-29 09:00 62.07 ug/m3 1.03 ug/m3 30.49 ug/m3 62.92 ug/m3 18.14 ug/m3 0.58 mg/m3 29.44 C 34.02 % 1,013.77 mbar 0.59 m/s 224.67 Deg 40.2 ug/m3 6.02 ug/m3
2021-07-29 01:00 26.39 ug/m3 0.21 ug/m3 79.65 ug/m3 36.94 ug/m3 12.48 ug/m3 0.3 mg/m3 29.71 C 40.38 % 1,014.50 mbar 1.16 m/s 279.05 Deg 3.34 ug/m3 1.27 ug/m3
2021-07-28 17:00 29.99 ug/m3 0.34 ug/m3 88.45 ug/m3 28.16 ug/m3 10.83 ug/m3 0.27 mg/m3 32.52 C 27.86 % 1,015.14 mbar 2.03 m/s 322.35 Deg 12.56 ug/m3 0.88 ug/m3
2021-07-28 09:00 49.13 ug/m3 0.54 ug/m3 49.22 ug/m3 31.3 ug/m3 11.67 ug/m3 0.39 mg/m3 28.22 C 42.58 % 1,015.15 mbar 0.7 m/s 232.92 Deg 21.65 ug/m3 3.22 ug/m3
2021-07-28 01:00 45.72 ug/m3 0.44 ug/m3 60.56 ug/m3 19.32 ug/m3 8.23 ug/m3 0.52 mg/m3 28.2 C 52.14 % 1,016.11 mbar 1.11 m/s 91.83 Deg 15.13 ug/m3 4.12 ug/m3
2021-07-27 17:00 21.76 ug/m3 0.27 ug/m3 87.46 ug/m3 29.59 ug/m3 12.53 ug/m3 0.35 mg/m3 28.37 C 70.62 % 1,017.27 mbar 2.97 m/s 80.42 Deg 17.21 ug/m3 1.41 ug/m3
2021-07-27 09:00 29.83 ug/m3 0.26 ug/m3 58.57 ug/m3 41.04 ug/m3 12.51 ug/m3 0.33 mg/m3 26.72 C 78.14 % 1,016.67 mbar 0.95 m/s 146.92 Deg 12.24 ug/m3 2.99 ug/m3
2021-07-27 01:00 18.57 ug/m3 0.15 ug/m3 64.45 ug/m3 38.59 ug/m3 15.82 ug/m3 0.29 mg/m3 27.42 C 74.65 % 1,015.89 mbar 2.06 m/s 127.84 Deg 9.02 ug/m3 0.82 ug/m3
2021-07-26 17:00 30.18 ug/m3 0.33 ug/m3 71.74 ug/m3 24.25 ug/m3 7.06 ug/m3 0.31 mg/m3 30.43 C 48.52 % 1,015.84 mbar 2.34 m/s 171.38 Deg 18.76 ug/m3 0.96 ug/m3
2021-07-26 09:00 35.8 ug/m3 0.2 ug/m3 44.76 ug/m3 40.14 ug/m3 12.95 ug/m3 0.25 mg/m3 26.92 C 71.52 % 1,014.34 mbar 1.1 m/s 144.82 Deg 8.5 ug/m3 1.61 ug/m3
2021-07-26 01:00 22.78 ug/m3 0.22 ug/m3 61.39 ug/m3 33.32 ug/m3 11.99 ug/m3 0.32 mg/m3 28.05 C 59.97 % 1,013.87 mbar 1.27 m/s 137.12 Deg 9.57 ug/m3 1.45 ug/m3
2021-07-25 17:00 20.57 ug/m3 0.27 ug/m3 95.67 ug/m3 27.33 ug/m3 11.86 ug/m3 0.3 mg/m3 28.76 C 49.72 % 1,014.51 mbar 3.26 m/s 52.46 Deg 10.45 ug/m3 1.21 ug/m3
2021-07-25 09:00 29.26 ug/m3 0.28 ug/m3 49.38 ug/m3 38.72 ug/m3 14.26 ug/m3 0.29 mg/m3 26.93 C 47.33 % 1,013.46 mbar 0.7 m/s 238.57 Deg 4.13 ug/m3 2.35 ug/m3
2021-07-25 01:00 22.38 ug/m3 0.14 ug/m3 71.55 ug/m3 29.84 ug/m3 10.17 ug/m3 0.24 mg/m3 28.48 C 43.2 % 1,013.99 mbar 1.54 m/s 239.55 Deg 1.35 ug/m3 1.08 ug/m3
2021-07-24 17:00 19.51 ug/m3 0.21 ug/m3 83.25 ug/m3 26.55 ug/m3 8.18 ug/m3 0.25 mg/m3 30.82 C 42.5 % 1,014.01 mbar 2.67 m/s 195.9 Deg 8.6 ug/m3 1.65 ug/m3
2021-07-24 09:00 22.97 ug/m3 0.33 ug/m3 68.99 ug/m3 32.11 ug/m3 13.13 ug/m3 0.23 mg/m3 26.81 C 59.82 % 1,013.69 mbar 1.04 m/s 254.72 Deg 3.95 ug/m3 1.12 ug/m3
2021-07-24 01:00 33.8 ug/m3 0.65 ug/m3 62.75 ug/m3 34.24 ug/m3 12.51 ug/m3 0.44 mg/m3 27.41 C 57.46 % 1,014.25 mbar 1.22 m/s 127.83 Deg 10.27 ug/m3 2.35 ug/m3
2021-07-23 17:00 25.9 ug/m3 0.29 ug/m3 102.25 ug/m3 17.93 ug/m3 8.41 ug/m3 0.32 mg/m3 28.39 C 56.68 % 1,014.66 mbar 3.41 m/s 48.58 Deg 19.61 ug/m3 2.41 ug/m3
2021-07-23 09:00 22.08 ug/m3 0.21 ug/m3 69.58 ug/m3 49.24 ug/m3 18.07 ug/m3 0.27 mg/m3 26.14 C 73.24 % 1,014.33 mbar 1.3 m/s 144.82 Deg 11.87 ug/m3 1.15 ug/m3
2021-07-23 01:00 17.93 ug/m3 0.08 ug/m3 86.02 ug/m3 31.51 ug/m3 10.28 ug/m3 0.2 mg/m3 28.45 C 49.26 % 1,014.76 mbar 2.39 m/s 243.47 Deg 1.25 ug/m3 0.9 ug/m3
2021-07-22 17:00 26.8 ug/m3 0.21 ug/m3 83.08 ug/m3 23.24 ug/m3 8.44 ug/m3 0.26 mg/m3 31.69 C 42.95 % 1,015.98 mbar 2.34 m/s 210.86 Deg 11.75 ug/m3 1.36 ug/m3
2021-07-22 09:00 30.83 ug/m3 0.16 ug/m3 55.47 ug/m3 35.19 ug/m3 12.43 ug/m3 0.28 mg/m3 26.21 C 68.36 % 1,015.90 mbar 1.03 m/s 237.07 Deg 7.24 ug/m3 0 ug/m3
2021-07-22 01:00 17.76 ug/m3 0.14 ug/m3 76.43 ug/m3 37.39 ug/m3 12.72 ug/m3 0.28 mg/m3 26.36 C 75.54 % 1,016.07 mbar 1.37 m/s 234.9 Deg 6.21 ug/m3 0 ug/m3
2021-07-21 17:00 24.09 ug/m3 0.24 ug/m3 97.52 ug/m3 18.16 ug/m3 9.49 ug/m3 0.28 mg/m3 28.51 C 56.99 % 1,015.86 mbar 3.03 m/s 155.6 Deg 14.4 ug/m3 0 ug/m3
2021-07-21 09:00 29.7 ug/m3 0.2 ug/m3 75.14 ug/m3 37.3 ug/m3 13.49 ug/m3 0.29 mg/m3 25.58 C 75.08 % 1,015.04 mbar 0.93 m/s 214.24 Deg 10.03 ug/m3 0 ug/m3
2021-07-21 01:00 17.59 ug/m3 0.11 ug/m3 94.74 ug/m3 36.46 ug/m3 13.8 ug/m3 0.27 mg/m3 25.7 C 76.25 % 1,014.18 mbar 1.66 m/s 197.87 Deg 6.81 ug/m3 0 ug/m3
2021-07-20 17:00 20.61 ug/m3 0.21 ug/m3 98.69 ug/m3 28.65 ug/m3 13.75 ug/m3 0.3 mg/m3 25.7 C 75.82 % 1,012.44 mbar 3.91 m/s 52.97 Deg 15.85 ug/m3 0 ug/m3
2021-07-20 09:00 18.8 ug/m3 0.06 ug/m3 71.14 ug/m3 42.62 ug/m3 13.17 ug/m3 0.22 mg/m3 24.57 C 80.53 % 1,010.56 mbar 1.68 m/s 213.25 Deg 4.44 ug/m3 0 ug/m3
2021-07-20 01:00 13.38 ug/m3 0.02 ug/m3 88.66 ug/m3 51.67 ug/m3 13.68 ug/m3 0.19 mg/m3 25.12 C 76.72 % 1,010.00 mbar 1.84 m/s 240.17 Deg 0.81 ug/m3 0 ug/m3
2021-07-19 17:00 18.24 ug/m3 0.08 ug/m3 96.27 ug/m3 27.68 ug/m3 9.41 ug/m3 0.18 mg/m3 26.92 C 62.55 % 1,008.67 mbar 2.87 m/s 295.92 Deg 4.62 ug/m3 0 ug/m3
2021-07-19 09:00 22.12 ug/m3 0.06 ug/m3 74.11 ug/m3 34.05 ug/m3 10.16 ug/m3 0.14 mg/m3 24.4 C 73.21 % 1,007.19 mbar 1.69 m/s 301.37 Deg 4.03 ug/m3 0 ug/m3
2021-07-19 01:00 11.36 ug/m3 -0.07 ug/m3 90.32 ug/m3 N/A 13.32 ug/m3 0.19 mg/m3 24.89 C 74.74 % 1,005.89 mbar 3.4 m/s 273.39 Deg 0.86 ug/m3 0 ug/m3
2021-07-18 17:00 8.59 ug/m3 -0.2 ug/m3 98.43 ug/m3 44.16 ug/m3 11.94 ug/m3 0.18 mg/m3 26.7 C 64.42 % 1,005.74 mbar 4.77 m/s 261.5 Deg 1.07 ug/m3 0 ug/m3
2021-07-18 09:00 8.77 ug/m3 -0.2 ug/m3 82.33 ug/m3 33.64 ug/m3 10.89 ug/m3 0.15 mg/m3 24.1 C 73.85 % 1,006.85 mbar 2.79 m/s 261.75 Deg 0.47 ug/m3 0 ug/m3
2021-07-18 01:00 13.24 ug/m3 -0.18 ug/m3 77.88 ug/m3 51.95 ug/m3 11.9 ug/m3 0.2 mg/m3 24.64 C 69.33 % 1,008.39 mbar 3.69 m/s 265.94 Deg 1.42 ug/m3 0 ug/m3
2021-07-17 17:00 13 ug/m3 -0.15 ug/m3 81.25 ug/m3 54.34 ug/m3 12.04 ug/m3 0.17 mg/m3 26.74 C 58.66 % 1,010.07 mbar 4.44 m/s 264.63 Deg 2.85 ug/m3 0 ug/m3
2021-07-17 09:00 14.23 ug/m3 -0.17 ug/m3 67.83 ug/m3 38.06 ug/m3 11.72 ug/m3 0.16 mg/m3 24.32 C 72.41 % 1,010.83 mbar 2.81 m/s 271.8 Deg 2.04 ug/m3 0 ug/m3
2021-07-17 01:00 16.91 ug/m3 -0.15 ug/m3 67.07 ug/m3 49.48 ug/m3 8.35 ug/m3 0.2 mg/m3 25.62 C 61.95 % 1,011.86 mbar 3.28 m/s 263.4 Deg 2.44 ug/m3 0 ug/m3
2021-07-16 17:00 24.17 ug/m3 -0.03 ug/m3 68.17 ug/m3 30.21 ug/m3 10.32 ug/m3 0.23 mg/m3 28.99 C 51.07 % 1,012.69 mbar 2.66 m/s 280.49 Deg 9.57 ug/m3 0 ug/m3
2021-07-16 09:00 21.06 ug/m3 -0.07 ug/m3 40.27 ug/m3 42.72 ug/m3 11.23 ug/m3 0.24 mg/m3 25.46 C 76.04 % 1,012.43 mbar 1.33 m/s 244.11 Deg 8.7 ug/m3 0 ug/m3
2021-07-16 01:00 16.62 ug/m3 -0.14 ug/m3 54.32 ug/m3 35.67 ug/m3 7.61 ug/m3 0.2 mg/m3 26.31 C 61.84 % 1,013.64 mbar 1.88 m/s 249.94 Deg 1.83 ug/m3 0 ug/m3
2021-07-15 17:00 23.07 ug/m3 0.02 ug/m3 62.46 ug/m3 26.3 ug/m3 10.29 ug/m3 0.25 mg/m3 28.47 C 56.37 % 1,014.36 mbar 2.56 m/s 181.39 Deg 13.76 ug/m3 0 ug/m3
2021-07-15 09:00 13.87 ug/m3 -0.01 ug/m3 50.04 ug/m3 51.33 ug/m3 13.24 ug/m3 0.24 mg/m3 25.87 C 77.93 % 1,013.67 mbar 2.03 m/s 79.99 Deg 13.75 ug/m3 0 ug/m3
2021-07-15 01:00 19.84 ug/m3 -0.16 ug/m3 52.8 ug/m3 59.02 ug/m3 12.58 ug/m3 0.21 mg/m3 27.74 C 65.52 % 1,013.14 mbar 1.59 m/s 269.02 Deg 2.13 ug/m3 0 ug/m3
2021-07-14 17:00 21.39 ug/m3 -0.03 ug/m3 74.74 ug/m3 49.5 ug/m3 16.12 ug/m3 0.29 mg/m3 28.77 C 69.09 % 1,013.21 mbar 2.83 m/s 109.18 Deg 13.84 ug/m3 0 ug/m3
2021-07-14 09:00 21.67 ug/m3 -0.11 ug/m3 62.35 ug/m3 42.8 ug/m3 13.23 ug/m3 0.24 mg/m3 26.95 C 75.97 % 1,012.48 mbar 1.18 m/s 223.07 Deg 5.06 ug/m3 0.75 ug/m3
2021-07-14 01:00 12.85 ug/m3 -0.16 ug/m3 80.74 ug/m3 44.3 ug/m3 8.41 ug/m3 0.23 mg/m3 28.08 C 67.85 % 1,012.02 mbar 1.59 m/s 188.54 Deg 2.35 ug/m3 0.85 ug/m3
2021-07-13 17:00 16.03 ug/m3 -0.14 ug/m3 73.95 ug/m3 14.39 ug/m3 8.16 ug/m3 0.18 mg/m3 30.23 C 53.13 % 1,012.73 mbar 2.95 m/s 203.66 Deg 3.44 ug/m3 0.46 ug/m3
2021-07-13 09:00 18.34 ug/m3 -0.08 ug/m3 48.94 ug/m3 47.86 ug/m3 11.31 ug/m3 0.23 mg/m3 26.76 C 80.79 % 1,012.84 mbar 1.36 m/s 173.98 Deg 6.19 ug/m3 0.93 ug/m3
2021-07-13 01:00 12.33 ug/m3 -0.15 ug/m3 62.62 ug/m3 52.34 ug/m3 10.38 ug/m3 0.21 mg/m3 27.92 C 72.8 % 1,013.41 mbar 1.44 m/s 184.07 Deg 3.14 ug/m3 0.62 ug/m3
2021-07-12 17:00 28.22 ug/m3 0.02 ug/m3 77.06 ug/m3 27.87 ug/m3 11.62 ug/m3 0.29 mg/m3 30.38 C 57.83 % 1,013.83 mbar 2.03 m/s 185.39 Deg 15.68 ug/m3 1.38 ug/m3
2021-07-12 09:00 29.74 ug/m3 0.04 ug/m3 46.88 ug/m3 50.61 ug/m3 11.66 ug/m3 0.32 mg/m3 26.17 C 76.74 % 1,013.40 mbar 1.22 m/s 128.3 Deg 16.66 ug/m3 1.13 ug/m3
2021-07-12 01:00 17.22 ug/m3 -0.13 ug/m3 65.51 ug/m3 36.86 ug/m3 8.26 ug/m3 0.23 mg/m3 27.11 C 65.8 % 1,013.49 mbar 1.36 m/s 265.45 Deg 2.45 ug/m3 0.76 ug/m3
2021-07-11 17:00 12.65 ug/m3 -0.1 ug/m3 78.7 ug/m3 12.1 ug/m3 7.01 ug/m3 0.18 mg/m3 28.63 C 49.72 % 1,012.95 mbar 2.52 m/s 219.59 Deg 5.71 ug/m3 0.62 ug/m3
2021-07-11 09:00 9.79 ug/m3 -0.14 ug/m3 62.27 ug/m3 33.53 ug/m3 9.15 ug/m3 0.17 mg/m3 25.85 C 73.83 % 1,011.37 mbar 2.15 m/s 98.37 Deg 3.39 ug/m3 0.9 ug/m3
2021-07-11 01:00 17.76 ug/m3 -0.14 ug/m3 61.14 ug/m3 36.95 ug/m3 9.31 ug/m3 0.21 mg/m3 26.68 C 68.16 % 1,011.82 mbar 1.73 m/s 255.36 Deg 2.44 ug/m3 0.66 ug/m3
2021-07-10 17:00 20.37 ug/m3 -0.02 ug/m3 78.87 ug/m3 28.45 ug/m3 9.15 ug/m3 0.24 mg/m3 29.4 C 57.73 % 1,013.12 mbar 2.41 m/s 210.14 Deg 9.87 ug/m3 0.88 ug/m3
2021-07-10 09:00 15.47 ug/m3 -0.01 ug/m3 48.56 ug/m3 52.21 ug/m3 12.96 ug/m3 0.19 mg/m3 27.15 C 75.05 % 1,013.30 mbar 1.48 m/s 251.68 Deg 4.41 ug/m3 0.78 ug/m3
2021-07-10 01:00 14.14 ug/m3 -0.01 ug/m3 60.42 ug/m3 63.89 ug/m3 16.3 ug/m3 0.23 mg/m3 27.85 C 74.29 % 1,014.49 mbar 2.73 m/s 248.62 Deg 1.98 ug/m3 0.6 ug/m3
2021-07-09 17:00 22.22 ug/m3 -0.02 ug/m3 56.76 ug/m3 36.52 ug/m3 9.04 ug/m3 0.21 mg/m3 31.62 C 42.2 % 1,016.40 mbar 3.32 m/s 251.63 Deg 7.31 ug/m3 0.7 ug/m3
2021-07-09 09:00 26.07 ug/m3 -0.02 ug/m3 46.79 ug/m3 30.79 ug/m3 10.22 ug/m3 0.24 mg/m3 27.93 C 60.85 % 1,016.79 mbar 1.38 m/s 235.87 Deg 5.8 ug/m3 0.85 ug/m3
2021-07-09 01:00 27.77 ug/m3 0.03 ug/m3 55.77 ug/m3 36.39 ug/m3 8.33 ug/m3 0.33 mg/m3 29.07 C 58.26 % 1,017.22 mbar 1.44 m/s 179.63 Deg 10.23 ug/m3 1.4 ug/m3
2021-07-08 17:00 31.76 ug/m3 0.05 ug/m3 69.2 ug/m3 25.51 ug/m3 10.8 ug/m3 0.29 mg/m3 31.14 C 48.93 % 1,017.11 mbar 2.12 m/s 217.27 Deg 16.61 ug/m3 1.1 ug/m3
2021-07-08 09:00 22.93 ug/m3 0.01 ug/m3 44.5 ug/m3 39.71 ug/m3 12.36 ug/m3 0.29 mg/m3 27.39 C 75.12 % 1,016.11 mbar 1.04 m/s 222.48 Deg 13.11 ug/m3 1.31 ug/m3
2021-07-08 01:00 16.1 ug/m3 -0.11 ug/m3 65.58 ug/m3 27.07 ug/m3 7.96 ug/m3 0.23 mg/m3 28.71 C 58.95 % 1,015.40 mbar 1.29 m/s 184.04 Deg 3.77 ug/m3 0.84 ug/m3
2021-07-07 17:00 27.25 ug/m3 0.12 ug/m3 79.59 ug/m3 25.36 ug/m3 11.76 ug/m3 0.35 mg/m3 28.61 C 63.19 % 1,014.71 mbar 3.2 m/s 50.43 Deg 23.71 ug/m3 1.22 ug/m3
2021-07-07 09:00 28.48 ug/m3 0.09 ug/m3 63.38 ug/m3 38.6 ug/m3 14 ug/m3 0.34 mg/m3 26.18 C 74.02 % 1,013.26 mbar 1.09 m/s 141.86 Deg 18.74 ug/m3 1.53 ug/m3
2021-07-07 01:00 21.92 ug/m3 -0.02 ug/m3 79.76 ug/m3 31.51 ug/m3 11.17 ug/m3 0.29 mg/m3 26.82 C 66.84 % 1,013.06 mbar 1.62 m/s 130.94 Deg 11.86 ug/m3 1.3 ug/m3
2021-07-06 17:00 25.92 ug/m3 0.11 ug/m3 79.35 ug/m3 21.73 ug/m3 9.53 ug/m3 0.33 mg/m3 27.45 C 61.7 % 1,013.15 mbar 3.52 m/s 58.92 Deg 23.63 ug/m3 3.45 ug/m3
2021-07-06 09:00 15.48 ug/m3 -0.02 ug/m3 65.25 ug/m3 35.06 ug/m3 10.93 ug/m3 0.23 mg/m3 26.06 C 73.2 % 1,012.19 mbar 2.52 m/s 50.55 Deg 12.96 ug/m3 0.79 ug/m3
2021-07-06 01:00 14.23 ug/m3 -0.11 ug/m3 70.59 ug/m3 52.58 ug/m3 15.87 ug/m3 0.2 mg/m3 27.62 C 66.1 % 1,011.46 mbar 2.97 m/s 156.83 Deg 4.78 ug/m3 0.62 ug/m3
2021-07-05 17:00 23.18 ug/m3 -0.1 ug/m3 69.68 ug/m3 63.58 ug/m3 14.75 ug/m3 0.22 mg/m3 29.85 C 57.46 % 1,010.24 mbar 3.52 m/s 266.52 Deg 6.13 ug/m3 0.67 ug/m3
2021-07-05 09:00 22.13 ug/m3 -0.1 ug/m3 59.69 ug/m3 41.25 ug/m3 13.44 ug/m3 0.22 mg/m3 27.48 C 67.23 % 1,010.96 mbar 1.84 m/s 249.79 Deg 5.01 ug/m3 0.79 ug/m3
2021-07-05 01:00 17.13 ug/m3 -0.12 ug/m3 72.45 ug/m3 31.99 ug/m3 12.49 ug/m3 0.24 mg/m3 29.43 C 54.19 % 1,011.99 mbar 1.35 m/s 207.84 Deg 2.96 ug/m3 1.04 ug/m3
2021-07-04 17:00 20.66 ug/m3 -0.05 ug/m3 107.11 ug/m3 23.16 ug/m3 9.61 ug/m3 0.29 mg/m3 30.95 C 44.14 % 1,013.27 mbar 3.01 m/s 123.6 Deg 8.35 ug/m3 1.04 ug/m3
2021-07-04 09:00 14.93 ug/m3 -0.18 ug/m3 86.35 ug/m3 33.37 ug/m3 16.41 ug/m3 0.2 mg/m3 27.81 C 61.08 % 1,013.79 mbar 1.35 m/s 221.19 Deg 0.86 ug/m3 0.71 ug/m3
2021-07-04 01:00 34.95 ug/m3 -0.04 ug/m3 104.92 ug/m3 39.4 ug/m3 15.02 ug/m3 0.33 mg/m3 27.75 C 59.75 % 1,014.21 mbar 1.71 m/s 119.37 Deg 7.99 ug/m3 1.54 ug/m3
2021-07-03 17:00 27.9 ug/m3 0.08 ug/m3 91.75 ug/m3 33.11 ug/m3 14.1 ug/m3 0.3 mg/m3 30.9 C 38.49 % 1,014.90 mbar 2.67 m/s 134.61 Deg 13.57 ug/m3 1.24 ug/m3
2021-07-03 09:00 43.07 ug/m3 0.05 ug/m3 42.58 ug/m3 40.73 ug/m3 15.69 ug/m3 0.3 mg/m3 28.46 C 50.93 % 1,014.18 mbar 0.95 m/s 239.39 Deg 11.83 ug/m3 1.7 ug/m3
2021-07-03 01:00 25.01 ug/m3 -0.08 ug/m3 74.2 ug/m3 36.46 ug/m3 13.47 ug/m3 0.29 mg/m3 28.08 C 62.15 % 1,014.06 mbar 1.84 m/s 182.89 Deg 6.84 ug/m3 1.32 ug/m3

It is to be noted that the data is provisional and subject to quality assurance procedures. For validated data kindly refer your request to contact.air@era.org.mt